Wetbulb
54.13 52.49 50.95 48.85 48.58 49.24 43.61 34.81 29.38 38.75 41.90 34.43 30.87 30.15 32.51 38.25 34.73 36.42 34.30 33.17 31.17 28.45 28.75 26.79 25.84 25.73 29.22 33.95 32.90 28.86 30.03 26.86 22.75 25.94 29.54 30.39 30.74 27.74 27.37 25.02 19.33 20.87 18.29 20.48
54.07 52.88 50.79 47.66 47.70 47.78 38.60 32.76 32.84 40.18 38.59 27.20 28.87 31.58 33.69 34.93 33.47 33.14 32.99 31.92 32.91 31.92 28.68 26.15 27.64 28.65 33.30 34.03 32.36 28.79 29.72 24.53 18.07 21.95 25.77 28.12 26.39 27.35 27.72 26.84 25.31 20.02 19.91 20.83
54.01 53.00 51.02 48.15 46.71 47.90 39.06 31.98 27.89 33.38 35.19 32.30 28.90 28.36 28.80 29.99 35.12 33.94 34.38 32.76 32.90 30.39 27.29 29.21 27.33 27.57 33.35 33.19 33.28 39.72 35.15 26.53 23.72 18.59 22.01 25.39 25.15 27.81 27.84 25.88 23.11 21.29 22.85 24.03
54.43 53.15 51.39 48.86 47.14 47.56 38.97 30.96 28.67 31.68 26.02 27.61 28.44 29.01 29.77 29.36 29.34 32.76 32.57 30.94 30.48 29.09 24.65 26.40 26.14 28.56 28.79 31.48 34.40 31.60 30.86 24.99 23.47 26.03 27.35 27.78 27.08 26.48 26.45 24.68 24.41 19.94 20.90 22.12
54.86 53.37 51.71 49.71 47.91 47.82 39.08 33.62 30.37 31.36 27.50 29.45 26.60 28.55 27.19 29.53 30.26 30.74 29.10 29.89 30.53 28.51 26.94 28.79 26.63 26.63 25.46 26.42 29.82 28.25 27.12 23.97 24.20 23.01 26.75 24.96 22.64 23.79 23.08 23.77 24.10 22.95 23.70 23.44
55.16 53.53 51.59 49.76 49.00 47.01 38.85 37.96 37.05 33.19 28.56 28.22 25.87 26.08 27.23 29.81 30.87 31.64 32.89 30.56 28.19 26.64 29.17 30.33 30.85 30.22 29.32 27.86 25.15 23.76 23.38 22.68 21.53 15.58 21.46 21.28 16.57 20.15 22.91 23.93 25.86 23.97 21.03 23.73
55.21 53.75 51.75 49.84 49.13 46.91 41.56 39.60 35.98 30.16 27.74 29.04 29.39 29.47 29.95 31.31 30.50 28.69 30.71 28.04 26.31 28.83 30.78 30.79 27.93 25.33 25.43 25.24 25.36 27.44 22.65 23.29 22.31 15.07 17.88 8.40 19.91 26.48 26.08 27.12 28.23 30.11 28.14 27.23
55.43 54.03 51.96 49.94 48.35 47.43 42.03 40.51 36.96 31.43 27.94 29.44 29.05 29.30 29.45 27.65 27.82 27.19 28.70 29.55 29.97 30.80 29.47 25.10 22.98 21.43 21.29 22.51 23.84 23.16 25.29 22.29 17.93 13.76 13.45 17.55 21.89 25.13 25.05 23.38 25.40 29.02 27.40 28.37
55.19 53.97 52.01 49.50 47.98 47.77 42.86 41.27 39.79 34.87 29.74 29.08 31.18 29.12 28.98 25.80 25.14 25.29 27.38 31.83 32.85 30.99 27.31 24.74 19.13 16.73 18.98 19.43 21.23 24.34 24.55 23.22 18.34 17.78 13.96 11.13 18.56 25.30 29.34 28.53 21.57 28.80 29.19 28.39
55.38 53.92 51.49 49.15 47.89 47.66 44.27 41.67 41.98 37.93 29.80 32.34 32.55 29.52 29.22 30.46 28.02 25.46 26.88 28.83 28.53 30.01 24.70 21.93 20.18 18.54 21.88 17.36 17.84 19.36 18.68 18.09 16.92 16.77 16.94 18.75 23.41 25.72 26.94 19.18 19.09 27.98 28.83 28.63
55.50 53.50 50.63 48.70 48.00 47.51 44.06 41.47 42.77 38.34 32.87 33.93 36.48 36.21 31.76 31.18 30.46 26.93 28.47 26.90 26.44 25.38 22.91 22.56 22.11 21.16 20.39 17.92 18.71 17.94 18.82 17.66 15.70 17.54 14.90 11.36 23.54 22.65 17.54 22.07 25.51 26.72 25.79 26.52
54.40 51.59 49.54 48.41 48.25 46.62 45.37 39.70 43.39 42.70 34.88 33.51 37.58 36.96 35.95 35.27 34.92 31.63 30.89 27.13 26.97 27.81 24.50 23.40 23.32 21.42 17.53 16.20 13.76 18.93 16.42 18.69 16.67 18.53 19.04 23.01 24.04 23.22 25.24 25.87 24.81 25.56 26.19 27.27
52.12 50.08 49.02 48.33 47.51 46.21 43.67 39.81 39.83 37.94 32.85 31.87 31.89 30.73 33.12 36.34 35.69 36.87 29.82 29.83 30.41 27.62 28.06 25.02 23.49 19.88 21.42 14.61 15.65 15.82 17.35 20.41 17.32 18.50 17.75 19.88 24.01 23.77 25.54 25.87 25.67 26.30 26.75 25.09
50.42 49.51 48.53 47.88 46.91 45.48 43.25 39.02 39.87 36.63 32.68 25.37 26.01 33.59 30.18 33.05 33.19 35.06 34.26 31.25 31.08 30.11 28.26 25.42 23.88 20.88 23.21 18.41 17.95 17.19 19.45 19.85 17.16 16.76 19.00 22.15 22.33 24.15 25.06 25.07 25.28 24.74 24.51 24.01
49.54 49.12 47.97 47.68 46.06 44.31 41.06 39.50 38.95 38.15 31.26 25.52 26.20 29.56 30.98 31.55 31.34 32.44 32.58 31.06 28.75 27.12 25.70 23.62 20.70 24.47 21.60 19.62 19.57 16.73 17.52 16.78 15.74 14.73 20.80 20.44 21.80 24.19 24.44 22.70 21.62 22.27 21.92 21.76
48.69 47.92 48.38 45.95 44.25 42.92 37.92 32.00 37.50 38.24 35.17 27.20 21.44 28.77 26.96 29.20 29.53 29.28 29.31 29.35 27.93 27.25 25.41 23.14 23.61 24.39 21.45 15.83 14.68 19.23 20.09 21.35 22.36 19.25 22.53 21.61 22.23 23.26 23.11 21.08 21.31 21.94 22.29 22.68
48.27 46.81 46.07 44.86 43.93 39.00 32.77 29.35 31.79 38.48 34.78 26.35 17.86 19.90 26.89 27.89 28.31 27.48 26.11 26.98 26.12 25.84 23.94 21.67 21.68 22.07 23.88 18.65 14.97 19.19 20.03 20.41 20.75 21.42 20.17 18.67 20.42 18.93 21.42 21.37 21.58 22.77 21.95 22.26
46.71 45.76 44.84 43.46 41.83 39.00 34.57 37.45 39.60 36.89 31.05 27.87 13.60 13.68 21.27 26.32 23.63 23.32 26.70 24.26 25.43 24.72 23.47 25.06 22.38 23.70 21.33 15.41 20.06 18.83 20.22 20.03 19.56 20.01 20.72 19.83 20.61 20.61 19.98 20.58 20.42 19.08 19.20 20.30
44.43 42.46 41.00 37.00 34.22 31.39 34.78 38.97 36.92 34.11 29.92 17.33 14.02 14.00 14.18 25.18 23.99 25.45 26.27 27.12 19.99 27.02 23.58 23.52 24.55 20.94 14.28 19.61 18.21 17.84 19.33 18.79 18.83 19.78 19.25 18.69 17.90 17.75 18.26 18.30 18.30 17.95 18.42 19.71
41.88 35.34 31.13 27.30 33.70 40.31 35.68 29.41 26.78 23.62 20.28 16.53 15.18 22.50 17.00 21.96 20.40 19.29 20.91 19.55 21.23 12.23 20.99 26.06 20.30 21.05 22.96 21.37 19.82 19.47 19.34 19.30 19.11 16.36 15.73 17.00 16.14 16.52 16.65 17.30 18.24 19.03 19.85 20.84
32.29 28.37 28.10 33.45 36.82 30.19 25.64 17.58 14.72 11.88 10.75 17.18 20.29 21.45 17.91 24.83 16.72 17.86 22.90 15.83 16.74 8.83 17.57 20.17 17.81 16.36 18.75 20.35 18.85 19.16 18.28 17.58 17.50 18.44 18.85 18.83 18.08 17.45 17.38 17.59 18.90 19.98 20.46 20.54
32.02 31.61 32.00 28.94 23.54 19.89 16.74 6.97 11.24 10.73 12.76 14.26 16.14 21.04 23.03 22.16 25.70 17.69 15.75 10.97 10.99 7.45 21.27 17.47 12.79 17.46 19.53 18.46 18.69 18.11 17.05 16.77 17.22 18.01 17.81 18.09 18.41 17.96 18.41 18.37 19.40 19.91 21.15 21.60
29.84 24.44 20.11 17.77 15.36 11.33 7.13 1.60 4.18 6.30 15.01 21.38 20.87 17.37 19.08 18.51 20.57 15.98 12.40 9.73 12.33 18.29 12.15 12.79 13.65 19.22 18.31 17.18 17.71 17.32 17.36 17.35 17.98 17.59 18.02 18.11 17.49 18.80 18.80 18.26 20.10 20.16 20.16 20.95
20.03 16.76 12.61 14.08 10.97 7.17 11.18 13.38 14.82 20.99 21.81 19.78 19.72 16.66 16.40 16.44 13.28 11.41 10.37 14.53 16.11 6.83 3.88 7.05 11.04 14.57 15.99 15.59 16.17 15.46 13.89 15.29 15.59 15.19 15.21 16.22 16.53 16.69 18.60 19.03 20.04 19.81 19.06 20.39
17.91 18.94 11.14 12.16 17.91 19.51 18.75 20.18 20.68 19.36 18.99 17.24 16.09 15.42 15.79 11.28 11.57 11.76 11.20 7.21 3.15 8.41 6.97 11.93 14.95 11.68 9.97 8.18 10.01 10.73 11.92 11.82 11.15 13.83 14.78 15.03 15.65 15.61 15.92 17.56 20.07 19.61 19.85 19.35
17.78 14.76 14.97 20.23 19.18 17.64 19.03 18.63 17.93 19.39 17.36 17.16 14.89 8.10 7.08 4.18 4.55 4.74 1.83 3.05 1.99 7.16 9.16 12.86 11.92 10.57 5.04 2.03 5.02 8.07 8.21 5.22 6.75 12.27 14.09 15.85 15.21 15.02 15.11 18.31 18.99 18.78 19.61 18.05
16.40 15.52 21.11 19.53 19.12 18.08 18.05 19.61 18.77 16.17 15.75 9.46 7.71 4.31 3.30 4.70 1.43 2.17 7.11 4.09 6.25 8.11 12.11 12.70 8.64 7.29 7.86 4.69 8.75 12.68 11.35 7.18 8.09 10.70 11.95 12.13 13.98 15.25 15.29 14.80 17.45 18.61 19.71 18.53
MSLP
1024.33 1024.38 1024.64 1024.67 1024.54 1023.98 1023.63 1024.12 1024.06 1022.32 1021.62 1022.87 1024.12 1024.77 1024.59 1024.12 1023.59 1023.41 1023.31 1023.46 1023.68 1023.54 1024.01 1024.52 1024.28 1024.20 1024.17 1024.08 1024.12 1024.02 1024.09 1024.12 1023.98 1023.05 1022.46 1022.30 1022.33 1022.87 1023.51 1024.46 1025.36 1025.56 1024.97 1021.48
1023.78 1024.12 1024.40 1024.69 1024.58 1024.65 1024.70 1025.03 1024.52 1023.14 1022.97 1023.94 1024.87 1024.71 1024.59 1024.04 1024.16 1024.04 1024.00 1024.18 1024.25 1023.92 1024.24 1024.75 1024.58 1024.65 1024.21 1023.99 1023.62 1023.60 1023.88 1024.37 1024.33 1023.31 1023.35 1022.87 1023.07 1023.20 1023.96 1024.57 1024.88 1024.60 1024.52 1021.37
1023.28 1023.57 1023.88 1024.57 1024.76 1024.82 1025.21 1025.29 1025.11 1024.61 1024.69 1025.74 1025.10 1024.81 1024.72 1024.29 1023.46 1024.10 1024.20 1024.44 1024.71 1024.57 1024.66 1024.95 1024.64 1024.64 1024.44 1024.06 1023.95 1023.79 1023.90 1024.85 1025.04 1024.48 1023.95 1023.95 1023.91 1023.81 1024.17 1024.83 1025.01 1024.18 1023.28 1022.05
1022.71 1023.07 1023.72 1024.16 1024.52 1024.92 1025.48 1025.96 1026.09 1026.26 1026.91 1026.10 1026.20 1025.42 1025.46 1024.96 1024.56 1024.29 1024.46 1024.80 1025.13 1025.34 1025.35 1025.85 1025.30 1025.32 1025.35 1024.90 1024.51 1024.41 1024.85 1025.07 1025.29 1025.14 1024.79 1024.60 1023.98 1023.84 1024.13 1024.43 1024.48 1024.79 1023.35 1023.38
1022.03 1022.54 1022.95 1023.73 1024.15 1024.59 1025.60 1026.01 1026.17 1026.50 1026.86 1026.39 1026.42 1025.92 1025.39 1025.37 1024.91 1024.93 1025.14 1024.88 1025.26 1025.72 1025.90 1025.76 1025.84 1025.69 1026.20 1026.30 1025.90 1025.65 1025.97 1025.95 1026.08 1025.61 1024.92 1024.79 1024.45 1023.92 1023.57 1023.67 1023.93 1023.96 1023.94 1023.81
1021.18 1021.78 1022.39 1022.84 1023.80 1024.10 1025.08 1025.98 1025.95 1025.74 1026.76 1026.53 1026.51 1026.08 1025.67 1025.28 1025.37 1025.52 1025.50 1025.48 1025.49 1025.92 1025.85 1026.10 1026.26 1026.25 1026.38 1026.76 1026.96 1026.59 1026.75 1026.49 1026.86 1026.45 1025.99 1025.46 1024.40 1023.48 1023.36 1023.43 1023.93 1024.12 1024.28 1024.50
1020.32 1020.85 1021.54 1022.10 1022.97 1023.28 1024.02 1024.92 1025.20 1025.94 1026.02 1026.24 1025.83 1025.51 1025.68 1025.54 1025.28 1025.80 1025.95 1025.84 1025.93 1025.43 1025.57 1025.89 1025.72 1025.85 1026.33 1026.72 1027.35 1027.53 1027.08 1027.27 1027.37 1027.36 1026.74 1025.74 1023.76 1023.35 1023.17 1023.63 1024.33 1024.53 1024.74 1024.91
1019.36 1019.85 1020.58 1021.36 1022.11 1023.00 1023.79 1024.14 1024.51 1025.21 1025.23 1025.50 1025.57 1025.48 1025.64 1025.93 1025.61 1026.18 1026.21 1026.09 1026.14 1026.23 1026.21 1025.87 1025.84 1026.22 1026.92 1027.24 1027.53 1027.57 1027.57 1027.65 1027.77 1027.88 1027.51 1025.52 1024.55 1024.36 1024.35 1024.38 1024.88 1024.98 1025.16 1024.86
1018.28 1019.00 1019.60 1020.56 1021.39 1022.37 1023.55 1024.34 1024.29 1024.73 1025.25 1025.47 1025.46 1025.79 1025.86 1025.91 1025.92 1026.34 1025.98 1026.12 1026.40 1026.53 1026.53 1026.75 1026.89 1026.77 1027.18 1027.23 1027.49 1027.82 1028.29 1028.66 1028.60 1028.38 1027.80 1026.48 1025.36 1024.73 1024.16 1024.48 1025.09 1025.05 1025.00 1024.78
1017.46 1018.04 1018.96 1019.99 1020.83 1022.01 1023.17 1024.18 1024.29 1024.91 1025.93 1025.86 1025.96 1026.26 1026.23 1026.10 1026.24 1026.41 1026.21 1026.27 1026.64 1026.90 1027.37 1027.26 1027.08 1027.32 1027.76 1027.92 1027.71 1028.21 1028.68 1029.27 1029.33 1028.85 1028.01 1026.39 1025.77 1024.99 1024.20 1025.34 1026.44 1025.52 1025.22 1024.97
1016.49 1017.18 1018.55 1019.72 1020.65 1021.61 1022.58 1023.61 1024.26 1024.68 1025.93 1026.08 1025.99 1025.93 1026.60 1026.64 1026.37 1026.32 1026.79 1026.80 1027.19 1027.50 1027.63 1027.33 1027.01 1027.28 1028.18 1028.33 1027.98 1028.27 1028.72 1028.90 1029.09 1029.15 1028.53 1027.09 1026.07 1025.48 1026.32 1026.72 1026.22 1025.95 1025.50 1025.06
1016.37 1017.09 1018.28 1019.68 1020.50 1021.40 1022.37 1023.90 1024.00 1024.66 1026.05 1026.73 1026.84 1026.10 1025.82 1026.20 1026.54 1026.23 1026.70 1027.01 1027.37 1027.58 1027.91 1028.34 1028.29 1028.16 1028.53 1028.65 1028.60 1028.17 1028.73 1028.64 1028.82 1028.85 1027.74 1027.08 1026.75 1026.53 1026.37 1026.72 1026.77 1026.37 1025.99 1025.22
1016.18 1017.58 1018.69 1019.72 1020.81 1021.64 1022.46 1023.63 1024.30 1025.09 1026.26 1026.40 1026.95 1026.79 1025.48 1025.35 1026.30 1026.12 1026.44 1027.01 1027.19 1027.83 1028.25 1028.23 1028.74 1029.05 1028.69 1028.88 1029.04 1028.66 1028.64 1028.84 1029.18 1029.11 1028.17 1027.79 1026.87 1026.73 1027.01 1027.18 1027.12 1026.54 1026.08 1025.79
1015.82 1017.74 1018.93 1019.87 1020.61 1021.96 1022.59 1023.41 1024.29 1024.88 1026.04 1026.68 1026.47 1026.15 1026.03 1025.54 1026.43 1026.08 1026.04 1026.53 1027.05 1027.76 1028.36 1028.63 1029.01 1029.17 1028.96 1029.28 1029.28 1029.16 1029.01 1029.19 1029.63 1029.68 1028.86 1028.44 1027.48 1027.29 1027.52 1027.27 1027.20 1026.80 1026.38 1026.07
1016.13 1017.64 1018.74 1019.93 1021.02 1022.24 1023.27 1023.83 1024.51 1024.68 1025.24 1026.16 1027.12 1025.66 1025.56 1025.76 1026.24 1026.60 1026.58 1026.88 1027.45 1028.28 1029.08 1029.35 1029.43 1029.51 1029.67 1029.59 1029.54 1029.76 1029.92 1030.11 1030.52 1030.22 1029.93 1030.18 1028.69 1028.01 1027.89 1027.58 1027.37 1027.04 1026.40 1025.35
1016.84 1017.80 1019.05 1020.08 1021.12 1022.35 1023.15 1024.76 1025.18 1025.32 1025.47 1025.61 1027.16 1027.03 1026.45 1026.34 1026.62 1027.04 1027.34 1027.38 1027.77 1028.32 1029.11 1029.59 1029.52 1029.44 1029.51 1029.82 1030.24 1030.53 1030.49 1030.57 1030.84 1030.80 1030.36 1030.25 1029.26 1028.44 1028.20 1027.94 1027.24 1026.69 1026.02 1025.27
1017.09 1018.46 1019.52 1020.80 1021.90 1022.71 1023.18 1024.00 1024.51 1024.59 1025.35 1025.79 1027.41 1027.51 1027.34 1027.30 1027.46 1027.70 1028.18 1028.10 1028.52 1028.56 1029.19 1029.50 1029.63 1029.53 1029.21 1029.91 1030.59 1030.80 1030.81 1030.80 1030.88 1031.02 1030.89 1029.81 1029.12 1028.85 1028.48 1027.86 1027.03 1026.51 1025.60 1024.76
1017.81 1018.85 1020.32 1021.34 1022.45 1023.03 1024.02 1024.77 1024.23 1024.91 1025.61 1026.50 1027.79 1028.40 1028.16 1027.85 1028.13 1028.76 1028.72 1028.79 1029.00 1029.05 1029.35 1029.41 1029.39 1029.63 1029.76 1030.31 1030.60 1030.87 1030.98 1030.95 1030.97 1031.12 1031.04 1030.64 1029.68 1028.84 1028.30 1027.72 1026.91 1026.12 1024.98 1023.88
1018.46 1019.88 1021.15 1022.43 1023.04 1024.15 1024.50 1024.84 1024.94 1025.28 1026.04 1027.34 1028.57 1028.83 1028.63 1028.28 1028.95 1028.93 1028.79 1028.96 1029.49 1029.67 1029.37 1028.98 1029.27 1029.74 1030.13 1030.49 1030.94 1031.19 1031.55 1031.92 1031.74 1031.28 1030.72 1030.13 1029.65 1028.76 1028.22 1027.64 1026.77 1026.00 1024.69 1023.49
1019.03 1019.99 1021.90 1023.93 1024.58 1024.40 1024.45 1025.32 1025.49 1026.16 1027.74 1028.04 1028.57 1028.95 1029.21 1029.13 1029.35 1029.29 1029.75 1029.73 1029.78 1029.91 1029.16 1029.10 1029.33 1029.58 1030.32 1030.87 1031.19 1031.58 1032.07 1032.19 1032.03 1031.42 1030.40 1029.92 1029.22 1028.67 1028.03 1027.48 1026.65 1025.79 1024.61 1023.30
1019.24 1022.22 1023.87 1024.92 1024.60 1025.20 1025.78 1026.80 1027.56 1028.60 1029.30 1028.98 1029.09 1029.04 1028.95 1029.23 1029.12 1029.80 1030.04 1030.17 1030.50 1030.19 1029.68 1029.46 1029.64 1030.21 1030.82 1031.14 1031.63 1032.12 1032.35 1032.25 1032.00 1031.75 1031.19 1030.56 1030.02 1029.27 1028.33 1027.18 1026.34 1025.36 1024.27 1023.15
1019.74 1021.67 1024.17 1025.38 1025.95 1026.49 1027.24 1028.75 1029.40 1029.80 1029.62 1029.33 1029.24 1029.03 1029.08 1029.48 1029.24 1029.89 1030.75 1030.87 1031.11 1030.73 1030.03 1029.88 1030.44 1031.18 1031.47 1031.84 1032.21 1032.44 1032.49 1032.26 1031.94 1031.54 1030.93 1030.37 1029.86 1029.23 1028.44 1027.54 1026.34 1025.35 1024.23 1022.98
1020.60 1022.71 1025.17 1026.08 1027.44 1027.58 1028.26 1029.34 1029.90 1029.92 1029.46 1029.31 1029.32 1029.60 1029.69 1029.83 1030.05 1030.90 1031.17 1031.39 1031.23 1030.66 1030.62 1030.93 1031.60 1031.88 1032.24 1032.63 1032.80 1032.79 1032.73 1032.52 1032.03 1031.45 1030.96 1030.42 1029.77 1029.00 1028.36 1027.38 1026.39 1025.43 1024.27 1023.17
1022.62 1024.27 1026.45 1027.03 1027.60 1028.03 1028.24 1028.62 1028.87 1029.11 1029.19 1029.45 1029.62 1030.23 1030.35 1030.78 1031.07 1031.55 1031.77 1031.76 1031.61 1031.71 1031.84 1032.21 1032.58 1032.90 1033.20 1033.32 1033.36 1033.34 1033.16 1032.74 1032.28 1031.71 1031.17 1030.54 1029.97 1029.20 1028.40 1027.61 1026.63 1025.58 1024.50 1023.51
1024.25 1025.27 1027.10 1027.57 1027.75 1027.97 1028.31 1028.59 1028.89 1029.49 1029.81 1030.03 1030.27 1030.80 1031.19 1031.80 1032.13 1032.54 1032.70 1032.67 1032.67 1032.50 1032.78 1032.91 1033.26 1033.65 1033.87 1033.95 1033.99 1033.84 1033.45 1032.92 1032.53 1032.08 1031.46 1030.78 1030.17 1029.49 1028.73 1027.80 1026.80 1025.94 1024.97 1024.05
1025.60 1026.81 1027.64 1027.68 1027.80 1028.47 1028.80 1029.16 1029.68 1029.98 1030.28 1030.45 1030.91 1031.95 1032.73 1033.30 1033.51 1033.79 1033.72 1033.73 1033.46 1033.53 1033.48 1033.58 1033.79 1033.99 1034.28 1034.60 1034.22 1033.87 1033.47 1033.11 1032.83 1032.35 1031.66 1031.08 1030.40 1029.86 1029.12 1028.06 1027.23 1026.43 1025.59 1024.83
1027.08 1027.97 1027.77 1027.94 1028.21 1028.84 1029.39 1029.74 1030.28 1030.52 1030.82 1032.00 1032.44 1033.27 1033.94 1034.43 1034.76 1034.96 1034.47 1034.20 1034.19 1034.09 1033.99 1033.99 1034.29 1034.38 1034.36 1034.23 1034.06 1033.74 1033.50 1033.26 1032.89 1032.34 1031.73 1031.24 1030.68 1030.10 1029.30 1028.36 1027.67 1027.00 1026.28 1025.68
Wind_Speed
9 6 4 6 11 17 6 2 4 4 2 5 2 2 3 3 3 4 3 2 1 3 2 3 3 2 1 7 4 3 3 3 3 9 2 1 2 2 4 3 4 1 2 8
11 9 5 3 6 8 1 2 2 4 3 4 2 2 2 1 3 3 3 1 1 1 1 3 1 2 2 5 2 2 1 2 4 7 3 3 4 1 3 1 3 7 4 7
13 12 9 5 1 3 3 2 4 5 5 1 3 2 2 2 2 1 2 1 1 1 1 2 3 2 2 5 2 7 1 2 6 6 3 2 5 4 2 4 5 6 10 18
16 14 12 9 5 1 3 3 1 2 5 3 2 2 2 2 2 1 1 2 1 2 1 3 4 1 5 3 7 2 2 4 3 5 6 5 8 9 6 9 10 8 4 7
17 18 16 13 10 7 2 2 3 2 2 1 0 0 4 5 3 3 3 4 4 3 5 6 5 2 3 7 4 3 5 2 2 5 10 4 8 11 11 13 11 8 9 8
19 20 19 18 15 8 2 1 1 3 0 1 3 4 4 5 3 1 1 3 3 3 7 5 7 7 5 5 3 1 1 1 2 5 3 7 6 4 4 1 5 2 1 3
22 23 22 22 20 11 3 3 3 4 3 4 5 4 6 7 5 2 2 3 3 3 2 6 3 2 5 5 6 6 4 3 2 4 5 3 4 5 2 8 4 4 3 7
23 24 25 25 22 17 2 3 4 3 3 2 3 5 4 2 3 1 3 3 3 1 4 3 5 1 1 2 4 4 5 3 2 1 3 7 2 5 3 2 2 3 3 7
23 24 26 27 25 21 4 2 1 3 3 3 3 3 3 4 3 2 2 2 1 3 2 1 1 2 3 1 0 7 5 3 2 1 2 5 1 6 5 3 5 4 4 7
22 23 26 27 25 22 5 2 2 4 3 2 2 0 2 3 1 2 0 1 1 2 0 2 3 2 1 2 2 3 3 0 4 4 5 7 5 7 4 2 5 11 5 9
21 23 26 26 25 21 8 4 1 5 2 1 3 2 1 1 1 3 2 2 0 1 3 3 3 4 2 1 2 3 5 5 4 2 3 8 7 5 3 3 5 6 7 9
14 25 28 26 26 21 10 3 4 5 3 1 2 1 1 0 3 4 1 1 1 3 2 1 1 2 1 2 2 2 3 4 2 6 5 1 3 4 4 2 5 6 14 13
24 27 28 26 23 23 7 5 6 5 3 2 2 4 1 4 1 1 3 1 1 1 1 3 1 2 3 3 5 1 1 2 1 5 4 8 12 1 4 4 11 14 7 9
29 29 28 25 24 20 11 4 3 3 3 3 4 2 3 2 1 2 2 5 4 4 1 2 1 2 1 2 1 3 2 3 1 6 5 11 1 4 9 16 14 8 13 15
31 29 28 26 24 21 9 5 2 2 3 4 2 2 3 1 2 4 4 5 4 2 2 1 2 1 1 0 1 2 1 2 1 4 4 5 13 13 17 13 14 17 17 18
29 26 27 29 27 21 5 3 1 3 2 4 1 3 3 5 5 5 4 3 3 3 3 2 2 2 2 2 2 2 2 1 2 5 9 12 17 17 8 18 20 20 18 18
28 29 27 29 22 5 4 3 3 7 2 3 3 3 4 3 3 3 2 3 2 3 2 1 2 2 3 1 2 2 4 4 6 6 6 8 3 13 18 17 18 20 19 17
31 30 29 26 21 10 5 5 7 4 4 3 4 2 2 2 2 1 1 2 2 1 2 2 2 1 2 2 1 3 5 7 6 7 7 11 15 16 16 15 16 19 18 18
37 35 29 7 6 3 3 8 9 3 4 4 3 5 3 3 1 1 2 1 1 1 3 2 3 2 3 2 2 4 5 5 9 12 11 9 13 15 16 16 17 17 18 19
32 8 6 4 1 12 3 5 4 5 4 4 3 1 2 3 1 1 2 2 1 1 2 3 2 2 5 3 3 3 5 5 7 11 13 15 16 17 19 18 16 16 17 19
5 4 3 2 3 3 3 3 4 3 4 1 1 2 3 2 3 2 1 2 1 2 3 2 2 2 1 5 5 4 5 5 6 6 9 10 12 14 16 18 18 17 18 18
9 12 7 3 4 4 5 1 3 1 4 2 3 1 2 1 1 3 2 3 2 2 2 1 1 1 2 4 4 5 6 7 7 6 9 11 13 13 13 14 15 16 17 16
5 7 5 3 3 5 5 4 4 1 2 3 2 2 1 2 3 3 2 3 3 0 2 1 2 1 3 4 4 5 6 6 7 9 9 11 13 13 12 14 13 15 14 15
6 5 5 2 0 1 3 3 3 2 2 3 2 2 2 0 3 1 4 1 1 2 1 4 2 2 4 4 3 4 7 7 8 9 9 11 12 13 13 12 13 13 14 15
5 4 3 1 2 3 2 2 3 2 2 1 2 3 2 2 4 2 3 4 2 3 3 2 1 3 3 4 3 5 5 5 6 7 8 10 11 11 12 12 12 13 13 14
5 5 4 1 3 2 3 3 3 1 2 1 3 3 4 2 3 3 4 5 4 3 2 2 2 3 3 3 4 5 4 4 5 6 7 8 9 11 12 11 12 13 13 13
5 3 3 3 4 3 2 1 1 1 3 2 3 4 4 2 3 2 2 4 3 3 2 1 2 3 4 4 4 4 5 4 5 5 5 6 8 8 8 12 14 13 11 11
Wind_Direction
220 215 272 328 346 341 37 52 360 298 15 51 56 61 343 344 4 8 46 99 138 123 358 306 296 315 28 342 319 1 318 142 256 246 220 226 192 203 164 159 274 178 194 264
202 196 219 288 353 18 74 74 269 320 35 86 31 316 314 36 8 19 30 67 61 113 125 314 240 338 174 6 81 132 235 251 322 340 12 30 87 54 119 110 169 200 215 256
196 186 193 216 278 23 66 70 8 338 47 337 120 64 249 273 125 104 88 142 94 92 94 239 242 265 267 314 356 330 170 214 205 211 229 161 261 247 284 178 253 279 247 292
197 186 195 194 184 151 82 14 116 129 309 359 11 56 326 290 277 97 67 114 122 173 216 279 235 207 328 305 356 65 77 234 218 270 264 250 273 282 245 226 237 234 314 264
200 189 185 183 180 151 78 174 143 45 209 319 76 320 223 215 243 204 232 181 169 196 212 221 240 154 181 252 346 70 2 273 353 249 255 318 289 282 266 253 255 249 269 272
204 195 187 178 181 157 137 178 39 113 100 123 110 230 222 219 173 299 271 168 146 239 243 240 242 218 220 240 231 55 333 190 69 273 346 314 288 260 246 127 51 302 195 317
208 199 188 180 181 174 133 181 116 124 237 200 201 204 199 210 207 254 234 139 151 214 352 301 265 196 240 244 262 202 199 165 142 270 340 281 226 4 186 117 75 48 19 345
212 201 190 183 177 180 131 153 141 158 235 209 237 207 199 124 38 253 234 237 218 1 22 354 328 12 317 74 74 243 196 137 229 165 249 301 104 1 339 341 122 65 304 293
213 203 190 184 177 177 118 147 99 115 103 244 61 161 191 183 189 283 221 32 343 49 85 60 287 286 338 204 81 23 106 50 133 200 253 260 98 278 254 202 212 204 272 301
219 200 183 180 174 170 134 110 97 92 137 355 30 238 197 147 136 154 14 166 156 31 204 217 192 248 250 263 216 177 103 126 238 255 263 284 341 315 278 196 324 329 318 310
222 186 173 173 168 165 138 124 123 118 144 204 174 150 189 10 240 143 149 90 53 92 210 221 186 175 222 282 244 185 183 174 210 210 247 269 345 27 54 270 306 301 314 309
201 167 164 168 163 147 139 127 94 88 107 62 307 242 163 339 299 151 162 49 140 212 102 300 358 190 122 150 258 333 245 191 214 192 242 41 14 202 225 275 273 311 312 308
162 159 161 160 155 151 128 104 118 83 127 79 10 244 150 95 347 325 140 223 153 86 6 150 153 234 149 170 236 262 264 76 248 1 335 323 320 198 32 331 318 310 307 318
150 156 155 155 153 142 121 118 120 92 100 132 188 249 87 50 306 113 116 139 103 104 65 107 155 219 189 204 179 170 194 353 357 263 320 323 290 360 341 320 314 313 311 306
151 153 150 153 135 118 87 76 74 98 110 167 260 129 144 121 54 104 104 112 103 87 74 72 218 277 140 181 83 239 55 120 122 263 307 242 285 308 313 311 320 314 309 305
146 147 145 134 125 123 102 80 257 215 172 103 159 340 45 47 75 108 104 106 91 102 152 203 244 263 148 121 213 140 82 354 226 269 304 294 279 287 299 319 312 310 304 303
135 131 133 130 126 67 81 175 181 148 123 90 44 9 19 14 87 55 57 37 89 111 139 199 201 243 141 122 228 159 326 305 286 280 331 306 307 304 309 305 306 306 301 298
128 118 116 109 109 86 50 359 79 91 89 56 101 283 49 14 89 85 351 94 51 3 174 162 179 125 69 224 111 340 346 331 312 333 309 275 289 301 310 309 312 310 306 306
116 114 114 88 40 75 118 115 73 56 100 112 85 141 212 24 17 112 89 151 126 296 217 201 151 168 226 102 352 348 352 336 298 307 303 303 311 313 317 319 315 310 307 308
125 74 63 67 9 121 92 16 31 26 349 31 116 72 170 87 264 25 101 338 148 209 235 123 186 146 111 77 32 1 333 309 309 324 329 330 327 324 321 319 314 310 309 308
60 79 71 71 108 65 40 60 67 344 8 355 187 178 126 317 111 150 349 159 45 80 254 204 207 142 113 21 2 343 329 319 306 280 289 307 306 311 314 318 317 317 316 314
125 106 88 60 35 49 87 74 350 99 221 309 122 136 108 131 62 101 327 128 64 231 293 52 222 146 57 10 344 331 332 325 310 309 321 322 321 317 316 314 317 322 318 321
59 64 81 76 305 71 128 186 295 299 196 185 157 75 78 28 45 60 97 93 207 36 72 203 170 99 10 346 329 323 318 312 322 333 335 329 326 327 328 321 327 324 330 334
71 86 61 70 301 267 172 165 154 100 97 104 87 83 88 303 63 186 93 237 34 51 59 225 239 278 310 328 329 321 319 329 333 333 325 328 331 329 329 332 333 333 343 341
83 69 102 100 144 67 76 71 90 44 103 121 88 68 75 17 79 25 68 34 291 196 220 194 232 271 295 305 313 311 315 326 328 324 326 329 331 336 327 333 341 343 350 351
72 53 90 67 78 51 57 50 80 34 112 86 45 93 59 11 125 68 210 120 226 237 227 252 285 297 281 272 290 299 297 314 310 316 324 328 339 335 321 333 350 348 353 352
54 34 14 75 63 89 85 62 77 311 68 102 97 76 197 105 48 330 197 194 210 229 274 273 245 265 273 273 294 328 333 321 317 315 327 328 332 325 338 356 348 345 349 353